STARLINK-2237 (48583 NORAD) Tracking and Keplerian Element Data

This shows tracking and keplerian element data for the satellite.

Feedback or suggestion? Click here.




ElementValue
Catalog48583
NameSTARLINK-2237
Epoch Orbit1126
Epoch Day210.8116809
Epoch Year2021
RAAN140.8291
Inclination53.0565
Eccentricity0.0001455
Argument of Perigee83.833
Mean Anonmoly276.2825
Mean Motion15.0640513
Decay Rate1.24E-05
L11 48583U 21041AG 21210.81168090 .00001240 00000-0 10212-3 0 9991
L22 48583 53.0565 140.8291 0001455 83.8330 276.2825 15.06405130 11266

Live tracking and technical data element details for STARLINK-2237 (NORAD 48583). STARLINK-2237 can be tracked NOW for your location showing map with azimuth and elevation plus other details from your city location.

Track the satellite on the map from your city or location and see movement details for azimuth, elevation, latitude, longitude, range, height, and movement on the map or in text.







IsCatalogInMostPopularTable: catalog: 48583, numindb: 21
Update: records affected: 1



GetName: 48583 STARLINK-2237

Hit Count: updated at: Sat, 31 Jul 2021 15:49:45 GMT